KI5QWQ Weather Reports


time (UTC)temp
F
wind
direction
speed
knots
gust
knots
rain 1hr
in
rain 24hr
in
rain mn
in
humidity
%
barometer
mb
20260905133845 0 167 1.7 1.7 0.00 0.00 0.00 1018.3
20260905133340 0 167 1.7 1.7 0.00 0.00 0.00 1018.1
20260905132839 0 167 1.7 1.7 0.00 0.00 0.00 1018.3
20260905132335 0 164 0.0 0.9 0.00 0.00 0.00 1018.2
20260905131834 0 221 0.0 0.9 0.00 0.00 0.00 1018.1
20260905131330 0 219 0.0 0.0 0.00 0.00 0.00 1017.9
20260905130825 0 216 0.9 1.7 0.00 0.00 0.00 1017.8
20260905130324 0 202 0.0 0.0 0.00 0.00 0.00 1017.8
20260905125820 0 202 0.0 0.0 0.00 0.00 0.00 1017.8
20260905125314 0 217 0.0 0.0 0.00 0.00 0.00 1017.6
20260905124811 0 217 0.0 0.0 0.00 0.00 0.00 1017.8
20260905124307 0 217 0.0 0.9 0.00 0.00 0.00 1017.5
20260905123801 0 217 0.0 0.9 0.00 0.00 0.00 1017.5
20260905123259 0 217 0.0 0.9 0.00 0.00 0.00 1017.4
20260905122758 0 205 0.0 0.9 0.00 0.00 0.00 1017.5
20260905122257 0 117 0.0 0.0 0.00 0.00 0.00 1017.4
20260905121753 0 217 0.0 0.9 0.00 0.00 0.00 1017.4
20260905121249 0 242 0.0 0.0 0.00 0.00 0.00 1017.3
20260905120748 0 124 0.0 0.0 0.00 0.00 0.00 1017.1
20260905120242 0 205 0.0 0.9 0.00 0.00 0.00 1017.2
20260905115737 0 154 0.0 0.0 0.00 0.00 0.00 1016.9
20260905115237 0 176 0.0 0.9 0.00 0.00 0.00 1017.0
20260905114731 0 217 0.0 0.0 0.00 0.00 0.00 1017.1
20260905114230 0 217 0.0 0.0 0.00 0.00 0.00 1017.0
20260905113730 0 195 0.0 0.0 0.00 0.00 0.00 1017.2
20260905113226 0 217 0.0 0.0 0.00 0.00 0.00 1016.9
20260905112725 0 179 0.0 0.9 0.00 0.00 0.00 1017.0
20260905112221 0 179 0.0 0.9 0.00 0.00 0.00 1017.1
20260905111721 0 154 0.0 0.0 0.00 0.00 0.00 1016.9
20260905111215 0 195 0.0 0.0 0.00 0.00 0.00 1016.8
20260905110715 0 309 0.0 0.0 0.00 0.00 0.00 1016.8
20260905110209 0 297 0.0 0.9 0.00 0.00 0.00 1016.8
20260905105705 0 343 0.0 0.9 0.00 0.00 0.00 1016.8
20260905105203 0 230 0.0 0.0 0.00 0.00 0.00 1016.6
20260905104658 0 195 0.0 0.9 0.00 0.00 0.00 1016.8
20260905104154 0 164 0.0 0.9 0.00 0.00 0.00 1016.8
20260905103649 0 205 0.0 0.0 0.00 0.00 0.00 1016.8
20260905103145 0 205 0.0 0.0 0.00 0.00 0.00 1016.8
20260905102641 0 205 0.0 0.0 0.00 0.00 0.00 1016.8
20260905102137 0 205 0.0 0.0 0.00 0.00 0.00 1016.6
20260905101635 0 336 0.0 0.0 0.00 0.00 0.00 1016.8
20260905101134 0 336 0.0 0.0 0.00 0.00 0.00 1016.7
20260905100630 0 336 0.0 0.0 0.00 0.00 0.00 1016.8
20260905100125 0 336 0.0 0.0 0.00 0.00 0.00 1016.8
20260905095619 0 255 0.0 0.0 0.00 0.00 0.00 1016.8
20260905095114 0 255 0.0 0.0 0.00 0.00 0.00 1016.7
20260905094610 0 315 0.0 0.0 0.00 0.00 0.00 1016.6
20260905094108 0 315 0.0 0.0 0.00 0.00 0.00 1016.8
20260905093603 0 309 0.0 0.0 0.00 0.00 0.00 1016.5
20260905093100 0 309 0.0 0.0 0.00 0.00 0.00 1016.5
20260905092559 0 221 0.0 0.9 0.00 0.00 0.00 1016.5
20260905092055 0 247 0.0 1.7 0.00 0.00 0.00 1016.7
20260905091554 0 195 0.0 0.9 0.00 0.00 0.00 1016.6
20260905091049 0 231 0.0 0.9 0.00 0.00 0.00 1016.6
20260905090549 0 120 0.9 1.7 0.00 0.00 0.00 1016.7
20260905090044 0 44 0.0 0.9 0.00 0.00 0.00 1016.9
20260905085542 0 269 0.0 0.0 0.00 0.00 0.00 1016.8
20260905085039 0 217 0.0 0.9 0.00 0.00 0.00 1016.6
20260905084538 0 202 0.0 0.0 0.00 0.00 0.00 1016.7
20260905084033 0 244 0.0 0.9 0.00 0.00 0.00 1016.7
20260905083528 0 309 0.0 0.9 0.00 0.00 0.00 1016.8
20260905083025 0 230 0.0 0.0 0.00 0.00 0.00 1016.8
20260905082520 0 209 0.0 0.9 0.00 0.00 0.00 1016.8
20260905082016 0 230 0.0 0.0 0.00 0.00 0.00 1016.8
20260905081515 0 217 0.0 0.9 0.00 0.00 0.00 1016.7
20260905081015 0 197 0.0 0.9 0.00 0.00 0.00 1016.9
20260905080509 0 205 0.0 1.7 0.00 0.00 0.00 1016.9
20260905080004 0 217 0.0 0.9 0.00 0.00 0.00 1016.9
20260905075457 0 211 0.0 0.9 0.00 0.00 0.00 1016.9
20260905074956 0 138 2.6 2.6 0.00 0.00 0.00 1017.0
20260905074452 0 221 0.0 1.7 0.00 0.00 0.00 1016.9
20260905073948 0 209 0.9 1.7 0.00 0.00 0.00 1016.8
20260905073442 0 168 0.0 1.7 0.00 0.00 0.00 1017.0
20260905072938 0 204 0.9 2.6 0.00 0.00 0.00 1016.8
20260905072432 0 217 0.9 1.7 0.00 0.00 0.00 1016.9
20260905071928 0 156 1.7 2.6 0.00 0.00 0.00 1017.1
20260905071426 0 202 0.9 1.7 0.00 0.00 0.00 1017.1
20260905070924 0 209 0.0 0.9 0.00 0.00 0.00 1017.1
20260905070421 0 195 0.0 1.7 0.00 0.00 0.00 1017.2
20260905065920 0 173 0.0 1.7 0.00 0.00 0.00 1017.2
20260905065419 0 212 0.0 1.7 0.00 0.00 0.00 1017.2
20260905064914 0 284 0.0 0.0 0.00 0.00 0.00 1017.1
20260905064409 0 164 0.0 0.9 0.00 0.00 0.00 1017.2
20260905063909 0 236 0.9 1.7 0.00 0.00 0.00 1017.3
20260905063404 0 213 0.0 1.7 0.00 0.00 0.00 1017.3
20260905062900 0 218 0.9 2.6 0.00 0.00 0.00 1017.3
20260905062354 0 187 0.0 1.7 0.00 0.00 0.00 1017.1
20260905061849 0 230 0.0 2.6 0.00 0.00 0.00 1017.4
20260905061343 0 171 1.7 4.3 0.00 0.00 0.00 1017.3
20260905060838 0 198 0.9 3.5 0.00 0.00 0.00 1017.3
20260905060335 0 181 0.9 1.7 0.00 0.00 0.00 1017.4
20260905055834 0 180 0.0 1.7 0.00 0.00 0.00 1017.5
20260905055329 0 152 1.7 1.7 0.00 0.00 0.00 1017.4
20260905054828 0 204 0.9 1.7 0.00 0.00 0.00 1017.4
20260905054325 0 189 1.7 4.3 0.00 0.00 0.00 1017.4
20260905053824 0 205 0.9 3.5 0.00 0.00 0.00 1017.4
20260905053319 0 216 0.0 1.7 0.00 0.00 0.00 1017.3
20260905052814 0 182 2.6 4.3 0.00 0.00 0.00 1017.3
20260905052313 0 157 0.0 2.6 0.00 0.00 0.00 1017.2
20260905051808 0 232 1.7 2.6 0.00 0.00 0.00 1017.3
20260905051304 0 215 0.0 1.7 0.00 0.00 0.00 1017.5
20260905050801 0 178 1.7 2.6 0.00 0.00 0.00 1017.5
20260905050257 0 180 0.9 1.7 0.00 0.00 0.00 1017.5
20260905045751 0 162 0.0 1.7 0.00 0.01 0.01 1017.5
20260905045247 0 174 0.9 2.6 0.00 0.01 0.01 1017.3
20260905044742 0 193 0.9 2.6 0.00 0.01 0.01 1017.2
20260905044237 0 181 0.9 2.6 0.00 0.01 0.01 1017.4
20260905043735 0 200 0.9 1.7 0.00 0.01 0.01 1017.4
20260905043236 0 152 1.7 2.6 0.00 0.01 0.01 1017.4
20260905042731 0 158 0.9 2.6 0.00 0.01 0.01 1017.2
20260905042230 0 206 0.0 0.9 0.00 0.01 0.01 1017.2
20260905041726 0 206 0.0 2.6 0.00 0.01 0.01 1017.2
20260905041221 0 189 0.9 2.6 0.00 0.01 0.01 1017.2
20260905040716 0 134 0.0 2.6 0.00 0.01 0.01 1017.2
20260905040215 0 184 0.9 1.7 0.00 0.01 0.01 1017.3
20260905035709 0 215 0.9 1.7 0.00 0.01 0.01 1017.3
20260905035206 0 138 1.7 2.6 0.00 0.01 0.01 1017.2
20260905034702 0 230 0.0 0.0 0.00 0.01 0.01 1017.2
20260905034201 0 214 0.0 1.7 0.00 0.01 0.01 1017.1
20260905033700 0 164 0.0 1.7 0.00 0.01 0.01 1017.2
20260905033156 0 176 0.9 1.7 0.00 0.01 0.01 1017.1
20260905032656 0 141 0.0 1.7 0.00 0.01 0.01 1017.1
20260905032156 0 141 2.6 3.5 0.00 0.01 0.01 1017.1
20260905031652 0 173 0.0 0.9 0.00 0.01 0.01 1017.1
20260905031147 0 173 0.0 0.9 0.00 0.01 0.01 1017.1
20260905030642 0 178 0.9 2.6 0.00 0.01 0.01 1017.0
20260905030137 0 229 0.0 0.0 0.00 0.01 0.01 1016.8
20260905025632 0 185 0.0 1.7 0.00 0.01 0.01 1016.8
20260905025128 0 167 0.9 1.7 0.00 0.01 0.01 1016.9
20260905024623 0 186 0.9 2.6 0.00 0.01 0.01 1016.9
20260905024119 0 218 0.0 2.6 0.00 0.01 0.01 1016.8
20260905023614 0 148 0.9 4.3 0.00 0.01 0.01 1016.8
20260905023108 0 161 0.9 3.5 0.00 0.01 0.01 1016.5
20260905022607 0 143 0.9 2.6 0.00 0.01 0.01 1016.5
20260905022103 0 164 0.9 1.7 0.00 0.01 0.01 1016.5
20260905021602 0 188 0.9 4.3 0.00 0.01 0.01 1016.5
20260905021058 0 187 1.7 4.3 0.00 0.01 0.01 1016.5
20260905020557 0 192 1.7 4.3 0.00 0.01 0.01 1016.5
20260905020053 0 220 1.7 2.6 0.00 0.01 0.01 1016.3
20260905015550 0 166 1.7 3.5 0.00 0.01 0.01 1016.2
20260905015045 0 173 1.7 2.6 0.00 0.01 0.01 1016.3
20260905014540 0 180 1.7 2.6 0.00 0.01 0.01 1016.0
20260905014036 0 169 0.9 2.6 0.00 0.01 0.01 1016.1
20260905013532 0 199 2.6 4.3 0.00 0.01 0.01 1015.8
20260905013028 0 174 1.7 2.6 0.00 0.01 0.01 1016.1
20260905012521 0 246 0.0 1.7 0.00 0.01 0.01 1015.8
20260905012019 0 142 1.7 1.7 0.00 0.01 0.01 1015.8
20260905011515 0 142 1.7 1.7 0.00 0.01 0.01 1015.7
20260905011010 0 183 1.7 2.6 0.00 0.01 0.01 1015.8
20260905010509 0 128 2.6 6.1 0.00 0.01 0.01 1015.8
20260905010006 0 176 0.9 1.7 0.00 0.01 0.01 1015.6
20260905005501 0 176 0.9 1.7 0.00 0.01 0.01 1015.6
20260905004956 0 187 0.0 1.7 0.00 0.01 0.01 1015.6
20260905004451 0 179 1.7 1.7 0.00 0.01 0.01 1015.7
20260905003946 0 196 1.7 2.6 0.00 0.01 0.01 1015.4
20260905003442 0 174 2.6 7.0 0.00 0.01 0.01 1015.5
20260905002937 0 162 0.9 3.5 0.00 0.01 0.01 1015.3
20260905002432 0 197 1.7 2.6 0.00 0.01 0.01 1015.2
20260905001931 0 197 1.7 2.6 0.00 0.01 0.01 1015.2
20260905001427 0 197 1.7 2.6 0.00 0.01 0.01 1015.1
20260905000921 0 197 1.7 2.6 0.00 0.01 0.01 1015.1
20260905000417 0 197 1.7 2.6 0.00 0.01 0.01 1015.0
20260904235912 0 158 2.6 5.2 0.00 0.01 0.01 1015.0
20260904235408 0 158 2.6 5.2 0.00 0.01 0.01 1015.0
20260904234902 0 172 1.7 4.3 0.00 0.01 0.01 1014.9
20260904234356 0 217 1.7 4.3 0.00 0.01 0.01 1015.1
20260904233852 0 217 1.7 4.3 0.00 0.01 0.01 1015.1
20260904233348 0 217 1.7 4.3 0.00 0.01 0.01 1015.0
20260904232844 0 158 1.7 6.1 0.00 0.01 0.01 1015.0
20260904232341 0 173 1.7 6.1 0.00 0.01 0.01 1015.1
20260904231836 0 173 1.7 6.1 0.00 0.01 0.01 1015.0
20260904231331 0 173 1.7 6.1 0.00 0.01 0.01 1015.0
20260904230826 0 188 3.5 10.4 0.00 0.01 0.01 1014.9
20260904230325 0 247 1.7 2.6 0.00 0.01 0.01 1014.8
20260904225820 0 209 0.9 1.7 0.00 0.01 0.01 1014.9
20260904225318 0 209 0.9 1.7 0.00 0.01 0.01 1014.7
20260904224818 0 209 0.9 1.7 0.00 0.01 0.01 1014.7
20260904224314 0 209 0.9 1.7 0.00 0.01 0.01 1014.9
20260904223812 0 183 4.3 6.1 0.00 0.01 0.01 1014.8
20260904223307 0 183 4.3 6.1 0.00 0.01 0.01 1014.8
20260904222804 0 198 1.7 2.6 0.00 0.01 0.01 1015.1
20260904222259 0 198 1.7 2.6 0.00 0.01 0.01 1014.8
20260904221753 0 198 1.7 2.6 0.00 0.01 0.01 1014.9
20260904221247 0 167 1.7 3.5 0.00 0.01 0.01 1014.9
20260904220743 0 144 4.3 6.1 0.00 0.01 0.01 1014.9
20260904220242 0 144 4.3 6.1 0.00 0.01 0.01 1014.8
20260904215737 0 144 4.3 6.1 0.00 0.01 0.01 1014.8
20260904215233 0 144 4.3 6.1 0.00 0.01 0.01 1015.2
20260904214727 0 144 4.3 6.1 0.00 0.01 0.01 1015.2
20260904214218 0 215 2.6 2.6 0.00 0.01 0.01 1015.3
20260904213716 0 215 2.6 2.6 0.00 0.01 0.01 1015.3
20260904213213 0 227 1.7 4.3 0.00 0.01 0.01 1015.5
20260904212713 0 227 1.7 4.3 0.00 0.01 0.01 1015.5
20260904212208 0 227 1.7 4.3 0.00 0.01 0.01 1015.6
20260904211707 0 227 1.7 4.3 0.00 0.01 0.01 1015.7
20260904211203 0 227 1.7 4.3 0.00 0.01 0.01 1015.5
20260904210657 0 235 2.6 3.5 0.00 0.01 0.01 1015.7
20260904210152 0 235 2.6 3.5 0.00 0.01 0.01 1015.8
20260904205648 0 209 2.6 4.3 0.00 0.01 0.01 1015.8
20260904205144 0 157 2.6 4.3 0.00 0.01 0.01 1015.8
20260904204640 0 227 2.6 3.5 0.00 0.01 0.01 1015.7
20260904204136 0 224 2.6 3.5 0.00 0.01 0.01 1015.9
20260904203632 0 167 3.5 5.2 0.00 0.01 0.01 1015.9
20260904203128 0 212 2.6 3.5 0.00 0.01 0.01 1016.1
20260904202624 0 212 2.6 3.5 0.00 0.01 0.01 1016.1
20260904202120 0 212 2.6 3.5 0.00 0.01 0.01 1016.2
20260904201620 0 212 2.6 4.3 0.00 0.01 0.01 1016.2
20260904201115 0 152 3.5 7.0 0.00 0.01 0.01 1016.2
20260904200609 0 229 2.6 4.3 0.00 0.01 0.01 1016.6
20260904200104 0 227 2.6 2.6 0.00 0.01 0.01 1016.4
20260904195603 0 213 2.6 3.5 0.00 0.01 0.01 1016.4
20260904195101 0 235 2.6 3.5 0.00 0.01 0.01 1016.5
20260904194556 0 212 1.7 3.5 0.00 0.01 0.01 1016.5
20260904194051 0 212 1.7 3.5 0.00 0.01 0.01 1016.6
20260904193546 0 236 1.7 4.3 0.00 0.01 0.01 1016.8
20260904193043 0 260 1.7 2.6 0.00 0.01 0.01 1016.8
20260904192542 0 160 4.3 5.2 0.00 0.01 0.01 1016.8
20260904192038 0 221 1.7 2.6 0.00 0.01 0.01 1016.8
20260904191535 0 214 1.7 1.7 0.00 0.01 0.01 1016.8
20260904191031 0 208 1.7 2.6 0.00 0.01 0.01 1017.0
20260904190526 0 185 3.5 5.2 0.00 0.01 0.01 1017.3
20260904190022 0 191 2.6 5.2 0.00 0.01 0.01 1017.2
20260904185518 0 177 3.5 4.3 0.00 0.01 0.01 1017.2
20260904185012 0 177 3.5 4.3 0.00 0.01 0.01 1017.3
20260904184507 0 157 3.5 5.2 0.00 0.01 0.01 1017.5
20260904184002 0 157 3.5 5.2 0.00 0.01 0.01 1017.3
20260904183457 0 190 2.6 4.3 0.00 0.01 0.01 1017.4
20260904182952 0 224 1.7 2.6 0.00 0.01 0.01 1017.3
20260904182448 0 224 1.7 2.6 0.00 0.01 0.01 1017.4
20260904181947 0 211 1.7 3.5 0.00 0.01 0.01 1017.5
20260904181443 0 211 1.7 3.5 0.00 0.01 0.01 1017.5
20260904180938 0 158 1.7 3.5 0.00 0.01 0.01 1017.5
20260904180433 0 211 1.7 2.6 0.00 0.01 0.01 1017.8
20260904175932 0 209 1.7 2.6 0.00 0.01 0.01 1017.9
20260904175432 0 146 5.2 5.2 0.00 0.01 0.01 1018.0
20260904174926 0 260 0.0 1.7 0.00 0.01 0.01 1017.9
20260904174421 0 260 0.0 1.7 0.00 0.01 0.01 1018.1
20260904173918 0 42 0.0 2.6 0.00 0.01 0.01 1018.1
20260904173413 0 196 1.7 2.6 0.00 0.01 0.01 1018.1
20260904172908 0 177 1.7 1.7 0.00 0.01 0.01 1018.1
20260904172402 0 136 3.5 6.1 0.00 0.01 0.01 1018.2
20260904171857 0 178 2.6 6.1 0.00 0.01 0.01 1018.1
20260904171352 0 208 0.9 1.7 0.00 0.01 0.01 1018.3
20260904170849 0 162 4.3 4.3 0.00 0.01 0.01 1018.3
20260904170344 0 162 4.3 4.3 0.00 0.01 0.01 1018.3
20260904165838 0 273 1.7 2.6 0.00 0.01 0.01 1018.3
20260904165337 0 218 2.6 6.1 0.00 0.01 0.01 1018.2
20260904164827 0 190 1.7 6.1 0.00 0.01 0.01 1018.2
20260904164326 0 141 3.5 4.3 0.00 0.01 0.01 1018.2
20260904163824 0 182 3.5 5.2 0.00 0.01 0.01 1018.2
20260904163323 0 204 1.7 4.3 0.00 0.01 0.01 1018.2
20260904162822 0 208 1.7 2.6 0.00 0.01 0.01 1018.2
20260904162318 0 208 1.7 2.6 0.00 0.01 0.01 1018.2
20260904161814 0 212 1.7 2.6 0.00 0.01 0.01 1018.2
20260904161314 0 212 1.7 2.6 0.00 0.01 0.01 1018.3
20260904160809 0 227 1.7 2.6 0.00 0.01 0.01 1018.1
20260904160304 0 227 1.7 2.6 0.00 0.01 0.01 1018.1
20260904155758 0 227 1.7 2.6 0.00 0.01 0.01 1018.2
20260904155259 0 227 1.7 2.6 0.00 0.01 0.01 1018.2
20260904154757 0 227 1.7 2.6 0.00 0.01 0.01 1018.2
20260904154252 0 227 1.7 2.6 0.00 0.01 0.01 1018.2
20260904153748 0 221 1.7 3.5 0.00 0.01 0.01 1018.1
20260904153243 0 236 1.7 2.6 0.00 0.01 0.01 1018.2
20260904152739 0 200 2.6 3.5 0.00 0.01 0.01 1018.3
20260904152234 0 200 2.6 3.5 0.00 0.01 0.01 1018.0
20260904151729 0 200 2.6 3.5 0.00 0.01 0.01 1018.1
20260904151228 0 238 2.6 3.5 0.05 0.01 0.01 1018.0
20260904150724 0 245 1.7 2.6 0.05 0.01 0.01 1017.9
20260904150219 0 247 1.7 3.5 0.00 0.00 0.00 1017.9
20260904145717 0 247 1.7 3.5 0.00 0.00 0.00 1018.0
20260904145213 0 247 1.7 3.5 0.00 0.00 0.00 1018.0
20260904144708 0 247 1.7 3.5 0.00 0.00 0.00 1018.0
20260904144204 0 216 2.6 2.6 0.00 0.00 0.00 1018.2
20260904143659 0 216 2.6 2.6 0.00 0.00 0.00 1017.9
20260904143156 0 216 2.6 2.6 0.00 0.00 0.00 1018.0
20260904142652 0 216 2.6 2.6 0.00 0.00 0.00 1017.9
20260904142148 0 216 2.6 2.6 0.00 0.00 0.00 1018.1
20260904141642 0 224 0.9 1.7 0.00 0.00 0.00 1017.9
20260904141138 0 224 0.9 1.7 0.00 0.00 0.00 1017.9
20260904140633 0 224 0.9 1.7 0.00 0.00 0.00 1017.6
20260904140127 0 224 0.9 1.7 0.00 0.00 0.00 1017.9
20260904135621 0 225 2.6 3.5 0.00 0.00 0.00 1017.9
20260904135117 0 225 2.6 3.5 0.00 0.00 0.00 1018.0
20260904134613 0 255 1.7 2.6 0.00 0.00 0.00 1018.0